Regional Weather Roundup
Issued by NWS Cleveland, OH

Home | Current Version | Previous Version | Text Only | Print | Product List | Glossary Off
Versions: 1 2 3 4 5 6 7 8 9 10 11 12 13 14 15 16 17 18 19 20 21 22 23 24 25 26 27 28 29 30 31 32 33 34 35 36 37 38 39 40 41 42 43 44 45 46 47 48 49 50

000
ASUS41 KCLE 100612
RWRCLE
OHIO REGIONAL WEATHER ROUNDUP
NATIONAL WEATHER SERVICE WILMINGTON, OH
100 AM EST WED FEB 10 2016

NOTE: "FAIR" INDICATES FEW OR NO CLOUDS BELOW 12,000 FEET WITH NO
SIGNIFICANT WEATHER AND/OR OBSTRUCTIONS TO VISIBILITY.

OHZ001>008-015>018-024>027-034-035-043-044-100700-
   NORTHWEST OHIO

CITY           SKY/WX    TMP DP  RH WIND       PRES   REMARKS
DEFIANCE       FLURRIES  22  15  75 W12G17    29.81S WCI  10
FINDLAY        CLOUDY    21  15  78 W22G29    29.79S WCI   5
TOLEDO EXPRESS CLOUDY    23  17  78 W16       29.76S WCI  10
TOLEDO EXEC    CLOUDY    24  18  77 W17       29.77S WCI  11
LIMA           CLOUDY    18  13  80 W21       29.82R WCI   1
$$

OHZ009>014-019>023-028>033-038-089-100700-
   NORTHEAST OHIO

CITY           SKY/WX    TMP DP  RH WIND       PRES   REMARKS
CLE-HOPKINS    LGT SNOW  24  20  84 W15       29.73F FOG     WCI  11
CLE-LAKEFRONT  LGT SNOW  28  23  81 W22       29.70S WCI  14
CUY CO. ARPT   NOT AVBL
LORAIN-ELYRIA  FLURRIES  24  17  74 W14G24    29.73S WCI  12
ASHTABULA      LGT SNOW  26  23  88 W14       29.65S FOG     WCI  14
AKRON-CANTON   LGT SNOW  23  18  81 W13       29.70S WCI  11
WOOSTER        FLURRIES  22  17  81 W13       29.72S WCI  10
MANSFIELD      CLOUDY    21  16  81 W13       29.73S WCI   9
YOUNGSTOWN     LGT SNOW  25  21  85 W16       29.66S FOG     WCI  12
$$

OHZ042-051>053-060>062-070>072-077>081-100700-
  SOUTHWEST OHIO

CITY           SKY/WX    TMP DP  RH WIND       PRES   REMARKS
CINC-COVINGTON LGT SNOW  16  11  80 W9        29.92F WCI   4
CINC-LUNKEN    CLOUDY    18  10  71 W13G20    29.97S WCI   5
HAMILTON       FAIR      15   9  76 W8        29.95S WCI   4
DAYTON         CLOUDY    15   9  76 W16       29.87S WCI  -1
WRIGHT-PAT AFB CLOUDY    17   9  71 W13       29.87S WCI   3
DAYTON GENERAL FAIR      15   5  64 W9G18     29.88S WCI   3
WILMINGTON     CLOUDY    16  10  77 W17       29.87R WCI   0
$$

OHZ036-037-039>041-045>050-054>059-063>069-073>076-082>088-100700-
  CENTRAL AND SOUTHEAST OHIO

CITY           SKY/WX    TMP DP  RH WIND       PRES   REMARKS
COLUMBUS       FLURRIES  20  12  71 W15       29.83R WCI   6
OSU AIRPORT    CLOUDY    20  13  74 W16G24    29.83R WCI   6
BOLTON FIELD   FLURRIES  19  15  83 W12G17    29.84S WCI   7
RICKENBACK AFB CLOUDY    19  15  81 W15       29.85R WCI   5
NEWARK         CLOUDY    22  16  78 MISG      29.81R
MARION         CLOUDY    21  13  71 W14G22    29.79S WCI   8
LANCASTER      CLOUDY    20  14  77 W16G22    29.84R WCI   6
ZANESVILLE     CLOUDY    25  17  72 W10G21    29.80R WCI  15
NEW PHILLY     LGT SNOW  24  20  84 W7        29.76R FOG     WCI  16
$$



USA.gov is the U.S. government's official web portal to all federal, state and local government web resources and services.